Location: Go�ngahuizen
(53.0821°N, 5.8849°E)
Time: 23:45:23
(UTC+00:00)

Cosmos 1703 - Pass Details

Date: 09 April 2020
Orbit: 524 x 540 km, 82.5° (Epoch: 22 May)

Event Time Altitude Azimuth Distance (km) Brightness Sun altitude
Rises 18:59:02 0° 348° (NNW) 2,707 7.4 -5.5°
Reaches altitude 10° 19:01:11 10° 348° (NNW) 1,812 6.5 -5.8°
Maximum altitude 19:05:11 84° 261° (W) 551 3.4 -6.3°
Drops below altitude 10° 19:09:09 10° 173° (S) 1,800 5.7 -6.9°
Sets 19:11:17 0° 173° (S) 2,688 6.5 -7.2°
